Time,TemperatureF,DewpointF,PressureIn,WindDirection,WindDirectionDegrees,WindSpeedMPH,WindSpeedGustMPH,Humidity,HourlyPrecipIn,Conditions,Clouds,dailyrainin,SolarRadiationWatts/m^2,SoftwareType,DateUTC
2013-04-27 00:01:00,61.0,25.0,-100.00,WSW,256,12.0,17.0,25,0.00,,,0.00,0.000000,,2013-04-27 07:01:00,
2013-04-27 00:52:00,61.0,27.0,-100.00,West,263,12.0,17.0,27,0.00,,,0.00,0.000000,,2013-04-27 07:52:00,
2013-04-27 01:01:00,61.0,27.0,-100.00,West,263,12.0,17.0,27,0.00,,,0.00,0.000000,,2013-04-27 08:01:00,
2013-04-27 01:11:00,61.0,27.0,-100.00,West,263,12.0,17.0,27,0.00,,,0.00,0.000000,,2013-04-27 08:11:00,
2013-04-27 01:21:00,61.0,27.0,-100.00,West,263,12.0,17.0,27,0.00,,,0.00,0.000000,,2013-04-27 08:21:00,
2013-04-27 01:52:00,61.0,33.0,-100.00,West,262,12.0,17.0,35,0.00,,,0.00,0.000000,,2013-04-27 08:52:00,
2013-04-27 02:01:00,61.0,33.0,-100.00,West,262,12.0,17.0,35,0.00,,,0.00,0.000000,,2013-04-27 09:01:00,
2013-04-27 02:11:00,61.0,33.0,-100.00,West,262,12.0,17.0,35,0.00,,,0.00,0.000000,,2013-04-27 09:11:00,
2013-04-27 02:21:00,61.0,33.0,-100.00,West,262,12.0,17.0,35,0.00,,,0.00,0.000000,,2013-04-27 09:21:00,
2013-04-27 02:53:00,60.0,37.0,-100.00,WSW,257,11.0,16.0,42,-99.99,,,0.00,0.000000,,2013-04-27 09:53:00,
2013-04-27 03:02:00,60.0,37.0,-100.00,WSW,257,11.0,16.0,42,-99.99,,,0.00,0.000000,,2013-04-27 10:02:00,
2013-04-27 03:12:00,60.0,37.0,-100.00,WSW,257,11.0,16.0,42,-99.99,,,0.00,0.000000,,2013-04-27 10:12:00,
2013-04-27 03:22:00,60.0,37.0,-100.00,WSW,257,11.0,16.0,42,-99.99,,,0.00,0.000000,,2013-04-27 10:22:00,
2013-04-27 03:52:00,60.0,39.0,-100.00,WSW,249,10.0,17.0,46,-99.99,,,0.00,0.000000,,2013-04-27 10:52:00,
2013-04-27 04:02:00,60.0,39.0,-100.00,WSW,249,10.0,17.0,46,-99.99,,,0.00,0.000000,,2013-04-27 11:02:00,
2013-04-27 04:11:00,60.0,39.0,-100.00,WSW,249,10.0,17.0,46,-99.99,,,0.00,0.000000,,2013-04-27 11:11:00,
2013-04-27 04:21:00,60.0,39.0,-100.00,WSW,249,10.0,17.0,46,-99.99,,,0.00,0.000000,,2013-04-27 11:21:00,
2013-04-27 04:52:00,61.0,38.0,-100.00,WSW,250,10.0,15.0,42,-99.99,,,0.00,0.000000,,2013-04-27 11:52:00,
2013-04-27 05:01:00,61.0,38.0,-100.00,WSW,250,10.0,15.0,42,-99.99,,,0.00,0.000000,,2013-04-27 12:01:00,
2013-04-27 05:11:00,61.0,38.0,-100.00,WSW,250,10.0,15.0,42,-99.99,,,0.00,0.000000,,2013-04-27 12:11:00,
2013-04-27 05:21:00,61.0,38.0,-100.00,WSW,250,10.0,15.0,42,-99.99,,,0.00,0.000000,,2013-04-27 12:21:00,
2013-04-27 05:52:00,59.0,33.0,-100.00,West,260,11.0,15.0,37,-99.99,,,0.00,0.000000,,2013-04-27 12:52:00,
2013-04-27 06:01:00,59.0,33.0,-100.00,West,260,11.0,15.0,37,-99.99,,,0.00,0.000000,,2013-04-27 13:01:00,
2013-04-27 06:11:00,59.0,33.0,-100.00,West,260,11.0,15.0,37,-99.99,,,0.00,0.000000,,2013-04-27 13:11:00,
2013-04-27 06:21:00,59.0,33.0,-100.00,West,260,11.0,15.0,37,-99.99,,,0.00,0.000000,,2013-04-27 13:21:00,
2013-04-27 06:52:00,58.0,37.0,-100.00,WSW,244,10.0,14.0,46,-99.99,,,0.00,2.000000,,2013-04-27 13:52:00,
2013-04-27 07:02:00,58.0,37.0,-100.00,WSW,244,10.0,14.0,46,-99.99,,,0.00,2.000000,,2013-04-27 14:02:00,
2013-04-27 07:11:00,58.0,37.0,-100.00,WSW,244,10.0,14.0,46,-99.99,,,0.00,2.000000,,2013-04-27 14:11:00,
2013-04-27 07:21:00,58.0,37.0,-100.00,WSW,244,10.0,14.0,46,-99.99,,,0.00,2.000000,,2013-04-27 14:21:00,
2013-04-27 07:52:00,58.0,37.0,-100.00,SW,235,10.0,13.0,46,-99.99,,,0.00,61.000000,,2013-04-27 14:52:00,
2013-04-27 08:01:00,58.0,37.0,-100.00,SW,235,10.0,13.0,46,-99.99,,,0.00,61.000000,,2013-04-27 15:01:00,
2013-04-27 08:11:00,58.0,37.0,-100.00,SW,235,10.0,13.0,46,-99.99,,,0.00,61.000000,,2013-04-27 15:11:00,
2013-04-27 08:21:00,58.0,37.0,-100.00,SW,235,10.0,13.0,46,-99.99,,,0.00,61.000000,,2013-04-27 15:21:00,
2013-04-27 08:53:00,69.0,50.0,-100.00,WNW,287,4.0,11.0,50,-99.99,,,0.00,250.000000,,2013-04-27 15:53:00,
2013-04-27 09:02:00,69.0,50.0,-100.00,WNW,287,4.0,11.0,50,-99.99,,,0.00,250.000000,,2013-04-27 16:02:00,
2013-04-27 10:53:00,82.0,52.0,-100.00,NNE,22,3.0,6.0,36,-99.99,,,0.00,639.000000,,2013-04-27 17:53:00,
2013-04-27 11:52:00,83.0,52.0,-100.00,NE,50,4.0,9.0,34,-99.99,,,0.00,786.000000,,2013-04-27 18:52:00,
2013-04-27 12:53:00,83.0,52.0,-100.00,NE,42,4.0,7.0,34,-99.99,,,0.00,886.000000,,2013-04-27 19:53:00,
2013-04-27 13:52:00,80.0,50.0,-100.00,West,270,5.0,9.0,35,-99.99,,,0.00,927.000000,,2013-04-27 20:52:00,
2013-04-27 14:02:00,80.0,50.0,-100.00,West,270,5.0,9.0,35,-99.99,,,0.00,927.000000,,2013-04-27 21:02:00,
2013-04-27 14:11:00,80.0,50.0,-100.00,West,270,5.0,9.0,35,-99.99,,,0.00,927.000000,,2013-04-27 21:11:00,
2013-04-27 14:21:00,80.0,50.0,-100.00,West,270,5.0,9.0,35,-99.99,,,0.00,927.000000,,2013-04-27 21:21:00,
2013-04-27 14:53:00,78.0,53.0,-100.00,West,271,8.0,11.0,42,0.00,,,0.00,909.000000,,2013-04-27 21:53:00,
2013-04-27 15:02:00,78.0,53.0,-100.00,West,271,8.0,11.0,42,0.00,,,0.00,909.000000,,2013-04-27 22:02:00,
2013-04-27 15:12:00,78.0,53.0,-100.00,West,271,8.0,11.0,42,0.00,,,0.00,909.000000,,2013-04-27 22:12:00,
2013-04-27 15:22:00,78.0,53.0,-100.00,West,271,8.0,11.0,42,0.00,,,0.00,909.000000,,2013-04-27 22:22:00,
2013-04-27 15:52:00,76.0,51.0,-100.00,West,273,11.0,16.0,41,0.00,,,0.00,838.000000,,2013-04-27 22:52:00,
2013-04-27 16:02:00,76.0,51.0,-100.00,West,273,11.0,16.0,41,0.00,,,0.00,838.000000,,2013-04-27 23:02:00,
2013-04-27 16:11:00,76.0,51.0,-100.00,West,273,11.0,16.0,41,0.00,,,0.00,838.000000,,2013-04-27 23:11:00,
2013-04-27 16:22:00,76.0,51.0,-100.00,West,273,11.0,16.0,41,0.00,,,0.00,838.000000,,2013-04-27 23:22:00,
2013-04-27 16:52:00,77.0,51.0,-100.00,West,273,14.0,18.0,41,0.00,,,0.00,711.000000,,2013-04-27 23:52:00,
2013-04-27 17:01:00,77.0,51.0,-100.00,West,273,14.0,18.0,41,0.00,,,0.00,711.000000,,2013-04-28 00:01:00,
2013-04-27 17:11:00,77.0,51.0,-100.00,West,273,14.0,18.0,41,0.00,,,0.00,711.000000,,2013-04-28 00:11:00,
2013-04-27 17:21:00,77.0,51.0,-100.00,West,273,14.0,18.0,41,0.00,,,0.00,711.000000,,2013-04-28 00:21:00,
2013-04-27 17:52:00,79.0,52.0,-100.00,West,277,15.0,20.0,39,0.00,,,0.00,537.000000,,2013-04-28 00:52:00,
2013-04-27 18:01:00,79.0,52.0,-100.00,West,277,15.0,20.0,39,0.00,,,0.00,537.000000,,2013-04-28 01:01:00,
2013-04-27 18:11:00,79.0,52.0,-100.00,West,277,15.0,20.0,39,0.00,,,0.00,537.000000,,2013-04-28 01:11:00,
2013-04-27 18:21:00,79.0,52.0,-100.00,West,277,15.0,20.0,39,0.00,,,0.00,537.000000,,2013-04-28 01:21:00,
2013-04-27 18:52:00,74.0,49.0,-100.00,West,274,16.0,20.0,42,0.00,,,0.00,346.000000,,2013-04-28 01:52:00,
2013-04-27 19:01:00,74.0,49.0,-100.00,West,274,16.0,20.0,42,0.00,,,0.00,346.000000,,2013-04-28 02:01:00,
2013-04-27 19:12:00,74.0,49.0,-100.00,West,274,16.0,20.0,42,0.00,,,0.00,346.000000,,2013-04-28 02:12:00,
2013-04-27 19:21:00,74.0,49.0,-100.00,West,274,16.0,20.0,42,0.00,,,0.00,346.000000,,2013-04-28 02:21:00,
2013-04-27 19:52:00,70.0,49.0,-100.00,West,269,13.0,19.0,47,0.00,,,0.00,151.000000,,2013-04-28 02:52:00,
2013-04-27 20:01:00,70.0,49.0,-100.00,West,269,13.0,19.0,47,0.00,,,0.00,151.000000,,2013-04-28 03:01:00,
2013-04-27 20:11:00,70.0,49.0,-100.00,West,269,13.0,19.0,47,0.00,,,0.00,151.000000,,2013-04-28 03:11:00,
2013-04-27 20:21:00,70.0,49.0,-100.00,West,269,13.0,19.0,47,0.00,,,0.00,151.000000,,2013-04-28 03:21:00,
2013-04-27 20:53:00,68.0,38.0,-100.00,WSW,248,9.0,17.0,33,0.00,,,0.00,12.000000,,2013-04-28 03:53:00,
2013-04-27 21:02:00,68.0,38.0,-100.00,WSW,248,9.0,17.0,33,0.00,,,0.00,12.000000,,2013-04-28 04:02:00,
2013-04-27 21:13:00,68.0,38.0,-100.00,WSW,248,9.0,17.0,33,0.00,,,0.00,12.000000,,2013-04-28 04:13:00,
2013-04-27 21:22:00,68.0,38.0,-100.00,WSW,248,9.0,17.0,33,0.00,,,0.00,12.000000,,2013-04-28 04:22:00,
2013-04-27 21:53:00,67.0,37.0,-100.00,West,264,11.0,15.0,33,0.00,,,0.00,0.000000,,2013-04-28 04:53:00,
2013-04-27 22:02:00,67.0,37.0,-100.00,West,264,11.0,15.0,33,0.00,,,0.00,0.000000,,2013-04-28 05:02:00,
2013-04-27 22:12:00,67.0,37.0,-100.00,West,264,11.0,15.0,33,0.00,,,0.00,0.000000,,2013-04-28 05:12:00,
2013-04-27 22:22:00,67.0,37.0,-100.00,West,264,11.0,15.0,33,0.00,,,0.00,0.000000,,2013-04-28 05:22:00,
2013-04-27 22:52:00,69.0,36.0,-100.00,WSW,247,9.0,14.0,30,0.00,,,0.00,0.000000,,2013-04-28 05:52:00,
2013-04-27 23:01:00,69.0,36.0,-100.00,WSW,247,9.0,14.0,30,0.00,,,0.00,0.000000,,2013-04-28 06:01:00,
2013-04-27 23:12:00,69.0,36.0,-100.00,WSW,247,9.0,14.0,30,0.00,,,0.00,0.000000,,2013-04-28 06:12:00,
2013-04-27 23:21:00,69.0,36.0,-100.00,WSW,247,9.0,14.0,30,0.00,,,0.00,0.000000,,2013-04-28 06:21:00,
2013-04-27 23:52:00,67.0,39.0,-100.00,WSW,244,10.0,15.0,36,0.00,,,0.00,0.000000,,2013-04-28 06:52:00,